Weather in Novaya Derevnya

Russia / Stavropol Krai     44°31′48″N   41°51′15″E
temp.,
°C
wind,
m/s
gust,
m/s
humid.,
%
clouds,
%
prec.,
mm/h
press.,
hPa
HPBL,
m
7 may, fri
fri700:00+11se2275100 0.0 101334
03:00+11s118095 0.0 101311
06:00+11wnw238895 0.0 101595
09:00+15wnw456349 0.0 1017631
12:00+18nw34526 0.0 1017881
15:00+18nw455842 0.0 10171444
18:00+16nnw346954 0.0 1018247
21:00+14n117191 0.0 101910
8 may, sat
sat800:00+13se227325 0.0 101818
03:00+10se22883 0.0 101723
06:00+11se259011 0.0 1016128
09:00+17ese3367100 0.0 1015578
12:00+21e3356100 0.0 10131062
15:00+22e3353100 0.0 10121388
18:00+19e367295 0.0 1012173
21:00+14se228299 0.0 101213
9 may, sun
sun900:00+12sse348879 0.0 101050
03:00+12s348764 0.0 101057
06:00+13w61378100 0.0 1009479
09:00+13wnw4684100 0.3 1010513
12:00+18nw446656 0.1 10091219
15:00+7wnw81595100 5.5 1016983
18:00+6wnw91595100 3.0 10191185
21:00+5wnw91494100 3.4 10221249
10 may, mon
mon1000:00+5w9149298 0.3 10231090
03:00+4w714905 0.4 1023607
06:00+4w5128832 0.0 1022665
09:00+9w811655 0.0 10211343
12:00+11wnw9125455 0.0 10191770
15:00+10wnw81163100 0.1 10191835
18:00+7wnw6117928 0.1 10201058
21:00+4w81693100 0.3 1020966
11 may, tue
tue1100:00+4ese2287100 0.0 102143
03:00+4e268994 0.0 1021208
06:00+5ese3787100 0.0 1020320
09:00+10ese556998 0.0 1020796
12:00+13e766016 0.0 10181437
15:00+13e666170 0.0 10181246
18:00+11e687389 0.0 1018831
21:00+8ese51281100 0.0 1019466